EW1179 Weather Reports


Display with metric or nautical units.
time (UTC)temp
F
wind
direction
speed
MPH
gust
MPH
rain 1hr
in
rain 24hr
in
rain mn
in
humidity
%
barometer
mb
20260504213038 65 186 3.0 6.0 0.00 0.00 0.00 53 1013.4
20260504211533 65 230 2.0 8.0 0.00 0.00 0.00 52 1013.3
20260504210026 64 254 1.0 7.0 0.00 0.00 0.00 57 1013.3
20260504204525 62 249 0.0 5.0 0.00 0.00 0.00 58 1013.4
20260504203025 62 204 0.0 6.0 0.00 0.00 0.00 57 1013.3
20260504201527 61 248 1.0 7.0 0.00 0.00 0.00 58 1013.4
20260504200026 61 219 0.0 5.0 0.00 0.00 0.00 59 1013.3
20260504194524 62 184 0.0 10.0 0.00 0.00 0.00 56 1013.3
20260504193022 64 201 1.0 7.0 0.00 0.00 0.00 55 1013.1
20260504191519 62 327 0.0 3.0 0.00 0.00 0.00 61 1013.1
20260504190021 62 340 0.0 1.0 0.00 0.00 0.00 59 1013.3
20260504184537 62 226 0.0 4.0 0.00 0.00 0.00 56 1013.4
20260504183018 63 223 0.0 0.0 0.00 0.00 0.00 55 1013.3
20260504181518 63 159 0.0 3.0 0.00 0.00 0.00 55 1013.4
20260504180015 64 213 0.0 4.0 0.00 0.00 0.00 55 1013.4
20260504174512 63 138 0.0 3.0 0.00 0.00 0.00 58 1013.5
20260504173015 63 248 0.0 0.0 0.00 0.00 0.00 58 1013.5
20260504171505 61 90 0.0 0.0 0.00 0.00 0.00 63 1013.5
20260504150129 47 254 0.0 0.0 0.00 0.00 0.00 93 1013.8
20260504081543 49 112 0.0 0.0 0.00 0.00 0.00 86 1013.5
20260504044532 51 51 0.0 0.0 0.00 0.00 0.00 82 1013.4
20260504043024 51 51 0.0 0.0 0.00 0.00 0.00 82 1013.2
20260504041521 52 177 0.0 4.0 0.00 0.00 0.00 82 1013.0
20260504040021 52 252 0.0 4.0 0.00 0.00 0.00 82 1012.6
20260504034520 52 216 0.0 5.0 0.00 0.00 0.00 81 1012.7
20260504033018 52 249 0.0 2.0 0.00 0.00 0.00 79 1012.6
20260504031518 53 260 0.0 0.0 0.00 0.00 0.00 77 1012.5
20260504030017 53 232 0.0 0.0 0.00 0.00 0.00 75 1012.3
20260504024517 54 261 1.0 4.0 0.00 0.00 0.00 74 1012.1
20260504023016 54 235 1.0 8.0 0.00 0.00 0.00 72 1012.2
20260504021518 55 224 0.0 2.0 0.00 0.00 0.00 71 1012.1
20260504020015 55 246 0.0 1.0 0.00 0.00 0.00 70 1012.1
20260504014515 56 251 0.0 3.0 0.00 0.00 0.00 69 1011.9
20260504013026 56 275 0.0 6.0 0.00 0.00 0.00 68 1011.8
20260504011515 56 242 0.0 7.0 0.00 0.00 0.00 66 1011.9
20260504010014 57 191 0.0 4.0 0.00 0.00 0.00 66 1011.8
20260504004513 57 284 0.0 3.0 0.00 0.00 0.00 65 1011.6
20260504003022 57 269 0.0 6.0 0.00 0.00 0.00 65 1011.6
20260504001512 58 232 1.0 6.0 0.00 0.00 0.00 64 1011.5
20260504000012 60 249 0.0 6.0 0.00 0.00 0.00 61 1011.3
20260503234511 60 275 0.0 4.0 0.00 0.00 0.00 59 1011.2
20260503233011 61 292 0.0 4.0 0.00 0.00 0.00 57 1011.2
20260503231510 60 237 1.0 11.0 0.00 0.00 0.00 56 1011.1
20260503230010 61 227 0.0 8.0 0.00 0.00 0.00 55 1011.2
20260503224516 62 234 2.0 6.0 0.00 0.00 0.00 53 1011.2
20260503223008 63 230 2.0 10.0 0.00 0.00 0.00 52 1011.1
20260503221508 63 247 2.0 8.0 0.00 0.00 0.00 52 1011.2
20260503220016 63 279 3.0 7.0 0.00 0.00 0.00 54 1011.2
20260503214507 63 234 1.0 7.0 0.00 0.00 0.00 55 1011.4